SA3PJN-WX Weather Reports


time (UTC)temp
F
wind
direction
speed
knots
gust
knots
rain 1hr
in
rain 24hr
in
rain mn
in
humidity
%
barometer
mb
20260506023900 31 41 4.3 14.8 0.00 0.00 0.00 82 964.6
20260506023400 31 36 4.3 14.8 0.00 0.00 0.00 82 964.5
20260506022900 31 103 4.3 13.0 0.00 0.00 0.00 81 964.6
20260506022400 31 96 3.5 13.0 0.00 0.00 0.00 81 965.0
20260506021900 31 339 3.5 13.0 0.00 0.00 0.00 80 964.6
20260506021400 31 117 3.5 11.3 0.00 0.00 0.00 81 964.6
20260506020830 31 7 3.5 11.3 0.00 0.00 0.00 81 964.5
20260506020330 31 114 3.5 13.0 0.00 0.00 0.00 81 964.5
20260506015800 31 92 3.5 13.0 0.00 0.00 0.00 81 964.4
20260506015300 31 28 3.5 13.0 0.00 0.00 0.00 81 965.0
20260506014730 31 56 3.5 10.4 0.00 0.00 0.00 82 964.5
20260506014230 31 118 2.6 9.6 0.00 0.00 0.00 82 964.5
20260506013730 31 14 2.6 9.6 0.00 0.00 0.00 83 964.4
20260506013230 31 78 2.6 8.7 0.00 0.00 0.00 83 964.4
20260506012700 31 39 2.6 8.7 0.00 0.00 0.00 83 964.4
20260506012200 31 70 2.6 9.6 0.00 0.00 0.00 83 964.3
20260506011700 30 124 2.6 13.9 0.00 0.00 0.00 84 964.2
20260506011200 30 62 2.6 13.9 0.00 0.00 0.00 84 964.2
20260506010700 30 104 2.6 13.9 0.00 0.00 0.00 83 964.2
20260506010130 30 128 2.6 10.4 0.00 0.00 0.00 83 964.1
20260506005630 30 114 2.6 10.4 0.00 0.00 0.00 82 964.2
20260506005100 29 83 2.6 7.8 0.00 0.00 0.00 83 964.1
20260506004600 29 66 1.7 7.8 0.00 0.00 0.00 82 964.1
20260506004100 30 349 2.6 8.7 0.00 0.00 0.00 82 964.2
20260506003600 30 356 2.6 8.7 0.00 0.00 0.00 83 964.0
20260506003100 30 85 3.5 9.6 0.00 0.00 0.00 82 964.2
20260506002530 30 68 3.5 11.3 0.00 0.00 0.00 82 964.0
20260506002000 30 247 2.6 11.3 0.00 0.00 0.00 82 964.0
20260506001429 30 70 2.6 11.3 0.00 0.00 0.00 83 964.0
20260506000929 30 118 3.5 13.9 0.00 0.00 0.00 84 964.0
20260506000401 30 122 2.6 13.9 0.00 0.00 0.00 84 964.0
20260505235859 29 26 1.7 7.8 0.00 0.00 0.00 84 964.0
20260505235359 29 353 2.6 7.8 0.00 0.00 0.00 83 964.1
20260505234859 29 94 2.6 6.1 0.00 0.00 0.00 83 964.0
20260505234329 29 102 1.7 7.8 0.00 0.00 0.00 83 964.0
20260505233829 29 121 1.7 7.8 0.00 0.00 0.00 83 964.0
20260505233329 29 61 2.6 9.6 0.00 0.00 0.00 83 964.0
20260505232759 30 88 2.6 9.6 0.00 0.00 0.00 84 964.1
20260505232259 30 123 2.6 9.6 0.00 0.00 0.00 83 964.0
20260505231759 30 67 2.6 7.8 0.00 0.00 0.00 84 964.0
20260505231259 29 89 2.6 8.7 0.00 0.00 0.00 84 964.0
20260505230729 29 16 2.6 11.3 0.00 0.00 0.00 85 964.0
20260505230229 29 81 2.6 11.3 0.00 0.00 0.00 84 964.0
20260505225729 29 113 2.6 11.3 0.00 0.00 0.00 84 964.0
20260505225229 29 17 1.7 6.1 0.00 0.00 0.00 84 964.1
20260505224729 29 14 1.7 6.1 0.00 0.00 0.00 84 964.0
20260505224229 29 310 1.7 5.2 0.00 0.00 0.00 84 964.0
20260505223659 29 15 1.7 7.0 0.00 0.00 0.00 83 964.0
20260505223159 29 14 1.7 7.8 0.00 0.00 0.00 82 964.0
20260505222659 30 117 1.7 7.8 0.00 0.00 0.00 82 964.0
20260505222129 30 49 1.7 7.8 0.00 0.00 0.00 82 964.0
20260505221629 30 67 1.7 7.8 0.00 0.00 0.00 82 964.0
20260505221129 30 134 1.7 7.8 0.00 0.00 0.00 82 964.0
20260505220629 30 95 1.7 7.8 0.00 0.00 0.00 83 964.0
20260505220129 29 50 1.7 5.2 0.00 0.00 0.00 82 964.0
20260505215629 30 97 1.7 7.0 0.00 0.00 0.00 82 964.0
20260505215059 30 3 2.6 9.6 0.00 0.00 0.00 82 964.0
20260505214559 30 24 2.6 10.4 0.00 0.00 0.00 82 964.0
20260505214059 30 334 2.6 10.4 0.00 0.00 0.00 82 964.0
20260505213529 30 82 2.6 11.3 0.00 0.00 0.00 82 964.0
20260505213029 30 125 2.6 11.3 0.00 0.00 0.00 81 964.0
20260505212529 30 105 1.7 9.6 0.00 0.00 0.00 82 964.0
20260505212028 30 40 0.9 6.1 0.00 0.00 0.00 83 964.0
20260505211528 30 120 0.9 6.1 0.00 0.00 0.00 83 963.6
20260505210958 30 0 0.9 6.1 0.00 0.00 0.00 83 964.0
20260505210458 30 99 1.7 6.1 0.00 0.00 0.00 82 964.0
20260505205958 31 119 2.6 9.6 0.00 0.00 0.00 82 964.0
20260505205458 31 78 2.6 9.6 0.00 0.00 0.00 83 963.5
20260505204958 31 102 2.6 7.8 0.00 0.00 0.00 83 963.3
20260505204458 31 223 2.6 8.7 0.00 0.00 0.00 85 963.3
20260505203958 31 59 2.6 8.7 0.00 0.00 0.00 85 963.4
20260505203458 31 99 2.6 8.7 0.00 0.00 0.00 86 963.4
20260505202958 31 70 2.6 8.7 0.00 0.00 0.00 87 963.1
20260505202458 31 96 2.6 7.8 0.00 0.00 0.00 88 963.1
20260505201958 31 37 2.6 9.6 0.00 0.00 0.00 87 963.2
20260505201458 31 356 2.6 9.6 0.00 0.00 0.00 87 963.2
20260505200958 31 80 2.6 10.4 0.00 0.00 0.00 87 963.3
20260505200458 31 42 1.7 10.4 0.00 0.00 0.00 86 963.3
20260505195958 31 77 1.7 8.7 0.00 0.00 0.00 84 963.3
20260505195458 32 75 1.7 7.0 0.00 0.00 0.00 83 963.3
20260505194958 32 63 2.6 7.0 0.00 0.00 0.00 82 963.3
20260505194458 32 15 2.6 9.6 0.00 0.00 0.00 81 963.3
20260505193958 32 108 2.6 11.3 0.00 0.00 0.00 81 963.3
20260505193458 33 107 2.6 11.3 0.00 0.00 0.00 81 963.2
20260505192958 33 111 3.5 13.0 0.00 0.00 0.00 79 963.2
20260505192458 33 55 3.5 13.0 0.00 0.00 0.00 78 963.2
20260505191958 34 334 3.5 13.0 0.00 0.00 0.00 77 963.2
20260505191428 34 117 4.3 14.8 0.00 0.00 0.00 73 963.2
20260505190928 35 131 4.3 14.8 0.00 0.00 0.00 71 963.1
20260505190358 35 53 3.5 13.0 0.00 0.00 0.00 71 963.1
20260505185858 35 113 3.5 13.0 0.00 0.00 0.00 70 963.0
20260505185358 35 66 4.3 14.8 0.00 0.00 0.00 69 963.0
20260505184858 35 124 5.2 16.5 0.00 0.00 0.00 70 963.0
20260505184358 35 114 4.3 16.5 0.00 0.00 0.00 69 963.0
20260505183828 35 63 3.5 11.3 0.00 0.00 0.00 68 963.0
20260505183328 35 114 3.5 12.2 0.00 0.00 0.00 66 963.0
20260505182827 35 119 4.3 14.8 0.00 0.00 0.00 66 963.0
20260505182327 35 192 5.2 14.8 0.00 0.00 0.00 65 963.0
20260505181757 36 161 6.1 17.4 0.00 0.00 0.00 63 963.0
20260505181257 36 126 6.1 18.2 0.00 0.00 0.00 62 963.0
20260505180757 37 124 7.0 18.2 0.00 0.00 0.00 62 963.0
20260505180257 37 184 6.1 18.2 0.00 0.00 0.00 62 962.6
20260505175757 37 184 5.2 12.2 0.00 0.00 0.00 63 963.0
20260505175257 37 196 6.1 12.2 0.00 0.00 0.00 65 962.6
20260505174757 36 182 5.2 13.0 0.00 0.00 0.00 65 962.6
20260505174257 36 189 5.2 13.0 0.00 0.00 0.00 65 962.6
20260505173757 36 198 6.1 16.5 0.00 0.00 0.00 64 962.6
20260505173257 37 189 6.1 16.5 0.00 0.00 0.00 64 963.0
20260505172757 37 134 5.2 16.5 0.00 0.00 0.00 61 962.4
20260505172257 37 190 5.2 13.9 0.00 0.00 0.00 58 962.5
20260505171757 37 189 5.2 15.6 0.00 0.00 0.00 56 962.5
20260505171257 38 133 5.2 15.6 0.00 0.00 0.00 53 962.5
20260505170757 38 151 5.2 15.6 0.00 0.00 0.00 52 962.5
20260505170227 38 164 6.1 19.1 0.00 0.00 0.00 53 962.4
20260505165657 38 189 7.0 19.1 0.00 0.00 0.00 51 962.3
20260505165157 38 169 7.0 19.1 0.00 0.00 0.00 51 962.4
20260505164657 38 157 6.1 22.6 0.00 0.00 0.00 52 962.4
20260505164157 38 175 6.1 22.6 0.00 0.00 0.00 51 962.3
20260505163657 38 182 6.1 22.6 0.00 0.00 0.00 50 962.1
20260505163127 39 61 5.2 22.6 0.00 0.00 0.00 50 962.0
20260505162627 39 67 5.2 17.4 0.00 0.00 0.00 48 962.1
20260505162127 40 35 4.3 13.9 0.00 0.00 0.00 54 962.1
20260505161627 39 86 4.3 13.9 0.00 0.00 0.00 55 962.1
20260505161127 38 187 4.3 13.9 0.00 0.00 0.00 53 962.1
20260505160627 39 83 5.2 13.9 0.00 0.00 0.00 55 962.2
20260505153056 39 142 5.2 15.6 0.00 0.00 0.00 51 962.1
20260505152556 39 146 5.2 17.4 0.00 0.00 0.00 52 962.1
20260505152026 39 77 5.2 17.4 0.00 0.00 0.00 51 962.1
20260505151526 40 17 5.2 16.5 0.00 0.00 0.00 50 962.1
20260505151026 41 73 5.2 16.5 0.00 0.00 0.00 48 962.0
20260505150526 43 139 7.0 25.2 0.00 0.00 0.00 46 962.0
20260505140326 36 193 6.1 22.6 0.00 0.00 0.00 64 962.0
20260505130126 39 129 6.1 13.0 0.00 0.00 0.00 60 961.4
20260505124556 38 123 7.0 22.6 0.00 0.00 0.00 56 961.5
20260505124056 39 167 7.0 22.6 0.00 0.00 0.00 56 961.5
20260505123556 41 161 7.8 24.3 0.00 0.00 0.00 54 961.2
20260505123056 40 139 8.7 24.3 0.00 0.00 0.00 60 961.2
20260505122556 42 189 7.0 22.6 0.00 0.00 0.00 47 961.1
20260505122056 43 186 6.1 21.7 0.00 0.00 0.00 49 961.0
20260505121556 44 183 7.0 22.6 0.00 0.00 0.00 45 961.0
20260505121056 43 122 7.0 22.6 0.00 0.00 0.00 47 961.0
20260505120556 43 129 6.1 18.2 0.00 0.00 0.00 48 960.6
20260505120056 43 140 6.1 18.2 0.00 0.00 0.00 46 961.0
20260505115526 44 107 7.0 20.0 0.00 0.00 0.00 51 961.0
20260505114956 42 116 7.0 20.9 0.00 0.00 0.00 52 961.0
20260505114425 43 141 7.8 26.1 0.00 0.00 0.00 48 961.0
20260505113855 43 134 7.0 26.1 0.00 0.00 0.00 46 961.0
20260505113355 44 129 5.2 22.6 0.00 0.00 0.00 44 961.0
20260505112855 44 88 5.2 18.2 0.00 0.00 0.00 45 961.0
20260505112355 46 106 5.2 17.4 0.00 0.00 0.00 44 960.6
20260505111826 45 105 4.3 16.5 0.00 0.00 0.00 47 961.0
20260505111325 45 136 5.2 16.5 0.00 0.00 0.00 49 960.6
20260505110825 44 199 5.2 19.1 0.00 0.00 0.00 51 961.0
20260505110255 44 46 4.3 19.1 0.00 0.00 0.00 52 961.0
20260505101725 38 126 4.3 14.8 0.00 0.00 0.00 57 960.4
20260505101225 38 87 6.1 19.1 0.00 0.00 0.00 61 960.4
20260505100655 38 187 7.0 20.0 0.00 0.00 0.00 58 960.5
20260505100155 38 159 7.8 20.0 0.00 0.00 0.00 56 960.3
20260505095655 38 193 6.1 20.0 0.00 0.00 0.00 55 960.3
20260505095155 39 212 5.2 15.6 0.00 0.00 0.00 57 960.2
20260505094655 38 116 5.2 14.8 0.00 0.00 0.00 58 960.2
20260505094155 38 86 5.2 16.5 0.00 0.00 0.00 56 960.2
20260505093655 38 81 6.1 16.5 0.00 0.00 0.00 58 960.3
20260505093155 38 120 5.2 15.6 0.00 0.00 0.00 57 960.3
20260505092655 38 112 5.2 14.8 0.00 0.00 0.00 56 960.3
20260505092125 38 123 6.1 14.8 0.00 0.00 0.00 58 960.4
20260505091625 38 188 6.1 17.4 0.00 0.00 0.00 58 960.3
20260505091125 39 167 7.0 20.0 0.00 0.00 0.00 57 960.2
20260505090624 39 163 6.1 20.0 0.00 0.00 0.00 56 960.3
20260505090054 38 176 6.1 18.2 0.00 0.00 0.00 60 960.3
20260505085555 39 153 5.2 18.2 0.00 0.00 0.00 59 960.3
20260505085024 38 101 6.1 18.2 0.00 0.00 0.00 60 960.1
20260505084455 37 183 6.1 15.6 0.00 0.00 0.00 61 960.2
20260505083954 37 175 6.1 15.6 0.00 0.00 0.00 59 960.1
20260505083454 37 115 6.1 26.9 0.00 0.00 0.00 60 960.1
20260505082954 37 10 7.0 26.9 0.00 0.00 0.00 59 960.0
20260505082454 38 175 6.1 16.5 0.00 0.00 0.00 61 960.0
20260505081924 37 187 5.2 16.5 0.00 0.00 0.00 62 960.1
20260505081424 36 134 6.1 16.5 0.00 0.00 0.00 63 960.0
20260505080924 36 135 5.2 16.5 0.00 0.00 0.00 62 960.0
20260505080424 36 101 5.2 13.9 0.00 0.00 0.00 62 960.0
20260505075854 36 199 5.2 18.2 0.00 0.00 0.00 62 960.0
20260505075354 36 212 6.1 18.2 0.00 0.00 0.00 65 960.0
20260505074854 37 159 5.2 17.4 0.00 0.00 0.00 64 960.0
20260505074354 37 126 6.1 20.0 0.00 0.00 0.00 63 960.0
20260505073854 37 49 6.1 20.0 0.00 0.00 0.00 63 959.6
20260505073354 37 62 7.0 20.0 0.00 0.00 0.00 62 960.0
20260505072854 37 185 7.8 20.0 0.00 0.00 0.00 65 960.0
20260505072354 37 184 7.0 20.9 0.00 0.00 0.00 64 959.6
20260505071824 38 159 6.1 24.3 0.00 0.00 0.00 65 960.0
20260505071324 40 121 5.2 24.3 0.00 0.00 0.00 64 959.6
20260505070754 38 131 5.2 14.8 0.00 0.00 0.00 68 960.0
20260505070254 36 90 6.1 18.2 0.00 0.00 0.00 70 959.6
20260505065754 36 73 6.1 18.2 0.00 0.00 0.00 68 959.4
20260505065254 35 122 6.1 18.2 0.00 0.00 0.00 70 959.3
20260505064754 35 102 6.1 18.2 0.00 0.00 0.00 71 959.3
20260505064254 35 93 6.1 18.2 0.00 0.00 0.00 69 959.3
20260505063754 36 138 6.1 22.6 0.00 0.00 0.00 72 959.2
20260505063224 35 164 6.1 22.6 0.00 0.00 0.00 72 959.2
20260505062724 36 172 6.1 17.4 0.00 0.00 0.00 73 959.1
20260505062154 35 52 6.1 16.5 0.00 0.00 0.00 73 959.0
20260505061624 35 91 6.1 16.5 0.00 0.00 0.00 74 959.1
20260505061054 35 110 7.0 20.0 0.00 0.00 0.00 74 959.1
20260505060554 35 154 7.0 20.0 0.00 0.00 0.00 73 959.0
20260505060024 36 226 6.1 20.0 0.00 0.00 0.00 72 959.1
20260505055524 37 185 6.1 16.5 0.00 0.00 0.00 71 959.1
20260505055024 38 117 5.2 14.8 0.00 0.00 0.00 72 959.1
20260505054454 37 171 5.2 16.5 0.00 0.00 0.00 73 959.0
20260505053954 36 86 6.1 16.5 0.00 0.00 0.00 74 959.1
20260505053454 35 186 6.1 15.6 0.00 0.00 0.00 75 959.0
20260505052924 36 68 5.2 18.2 0.00 0.00 0.00 73 959.0
20260505052424 36 74 5.2 18.2 0.00 0.00 0.00 75 959.0
20260505051854 36 138 6.1 19.1 0.00 0.00 0.00 74 959.0
20260505051354 35 127 6.1 19.1 0.00 0.00 0.00 76 959.0
20260505050854 35 13 5.2 15.6 0.00 0.00 0.00 74 958.6
20260505050353 37 131 5.2 16.5 0.00 0.00 0.00 72 959.0
20260505041753 34 184 4.3 11.3 0.00 0.00 0.00 78 958.3
20260505041253 33 177 3.5 11.3 0.00 0.00 0.00 79 958.3
20260505040753 33 274 3.5 11.3 0.00 0.00 0.00 80 958.2
20260505040253 33 115 3.5 13.9 0.00 0.00 0.00 80 958.2
20260505035723 34 104 3.5 13.9 0.00 0.00 0.00 77 958.0
20260505035223 34 64 3.5 13.0 0.00 0.00 0.00 77 958.1
20260505034723 33 36 3.5 13.0 0.00 0.00 0.00 80 958.1
20260505034153 33 19 2.6 10.4 0.00 0.00 0.00 81 958.1
20260505033653 32 182 2.6 9.6 0.00 0.00 0.00 80 958.0
20260505033153 32 127 2.6 7.8 0.00 0.00 0.00 81 958.0
20260505032653 33 341 2.6 7.8 0.00 0.00 0.00 80 958.0
20260505032153 33 297 2.6 10.4 0.00 0.00 0.00 79 958.0
20260505031653 32 111 2.6 10.4 0.00 0.00 0.00 84 958.0
20260505031153 31 238 2.6 9.6 0.00 0.00 0.00 86 958.0
20260505030653 31 51 3.5 9.6 0.00 0.00 0.00 86 958.0
20260505030123 31 167 2.6 9.6 0.00 0.00 0.00 85 957.6
20260505025623 30 199 2.6 7.8 0.00 0.00 0.00 87 957.6
20260505025123 30 32 2.6 8.7 0.00 0.00 0.00 87 957.6
20260505024623 30 98 2.6 8.7 0.00 0.00 0.00 87 957.6
20260505024123 30 157 2.6 7.8 0.00 0.00 0.00 87 957.5